TimeEDT,TemperatureF,Dew PointF,Humidity,Sea Level PressureIn,VisibilityMPH,Wind Direction,Wind SpeedMPH,Gust SpeedMPH,PrecipitationIn,Events,Conditions,WindDirDegrees,DateUTC
12:15 AM,59.2,53.2,81,29.97,10.0,West,11.5,-,N/A,,Clear,280,2013-08-08 04:15:00
12:36 AM,59.2,52.7,79,29.97,10.0,WNW,9.2,-,N/A,,Clear,290,2013-08-08 04:36:00
12:56 AM,59.0,51.8,77,29.98,10.0,WNW,9.2,-,N/A,,Clear,300,2013-08-08 04:56:00
1:16 AM,58.5,50.5,75,29.98,10.0,WNW,8.1,-,N/A,,Clear,300,2013-08-08 05:16:00
1:36 AM,58.1,50.2,75,29.98,10.0,NW,6.9,-,N/A,,Clear,310,2013-08-08 05:36:00
1:56 AM,57.2,50.0,77,29.98,10.0,NW,10.4,-,N/A,,Clear,310,2013-08-08 05:56:00
2:16 AM,56.7,50.0,78,29.99,10.0,NW,10.4,-,N/A,,Clear,310,2013-08-08 06:16:00
2:36 AM,56.3,50.0,79,29.99,10.0,NW,9.2,-,N/A,,Clear,310,2013-08-08 06:36:00
2:56 AM,55.8,50.0,81,29.99,10.0,NW,6.9,-,N/A,,Clear,310,2013-08-08 06:56:00
3:16 AM,55.6,50.0,81,29.99,10.0,NW,6.9,-,N/A,,Clear,320,2013-08-08 07:16:00
3:36 AM,55.0,50.0,83,30.00,10.0,WNW,5.8,-,N/A,,Clear,300,2013-08-08 07:36:00
3:56 AM,53.8,50.4,88,29.99,10.0,NW,5.8,-,N/A,,Clear,310,2013-08-08 07:56:00
4:16 AM,53.8,50.4,88,29.99,10.0,NNW,6.9,-,N/A,,Clear,330,2013-08-08 08:16:00
4:36 AM,53.6,50.4,89,29.99,10.0,NW,4.6,-,N/A,,Clear,320,2013-08-08 08:36:00
4:56 AM,52.7,50.0,91,30.00,10.0,NNW,3.5,-,N/A,,Clear,330,2013-08-08 08:56:00
5:16 AM,52.7,50.2,91,30.01,10.0,NNW,5.8,-,N/A,,Clear,330,2013-08-08 09:16:00
5:36 AM,52.5,50.2,92,30.01,10.0,NW,4.6,-,N/A,,Clear,320,2013-08-08 09:36:00
5:55 AM,51.8,49.5,92,30.01,10.0,NW,4.6,-,N/A,,Clear,320,2013-08-08 09:55:00
6:16 AM,52.0,49.5,91,30.01,10.0,NW,5.8,-,N/A,,Clear,320,2013-08-08 10:16:00
6:36 AM,51.8,49.3,91,30.00,10.0,NNW,5.8,-,N/A,,Clear,330,2013-08-08 10:36:00
6:55 AM,51.8,49.5,92,30.00,10.0,NNW,5.8,-,N/A,,Clear,340,2013-08-08 10:55:00
7:16 AM,53.6,50.5,89,30.00,10.0,WNW,5.8,-,N/A,,Clear,290,2013-08-08 11:16:00
7:36 AM,54.7,51.8,90,30.01,10.0,WNW,4.6,-,N/A,,Clear,300,2013-08-08 11:36:00
7:56 AM,56.5,52.0,85,30.02,10.0,NW,3.5,-,N/A,,Clear,310,2013-08-08 11:56:00
8:16 AM,58.8,51.8,77,30.02,10.0,NNW,4.6,-,N/A,,Clear,340,2013-08-08 12:16:00
8:36 AM,60.3,51.8,74,30.02,10.0,Calm,Calm,-,N/A,,Clear,0,2013-08-08 12:36:00
8:56 AM,62.8,51.8,67,30.02,10.0,Calm,Calm,-,N/A,,Clear,0,2013-08-08 12:56:00
9:16 AM,64.4,46.4,52,30.02,10.0,Calm,Calm,-,N/A,,Clear,0,2013-08-08 13:16:00
9:36 AM,63.7,51.6,65,30.02,10.0,South,4.6,-,N/A,,Clear,170,2013-08-08 13:36:00
9:56 AM,64.6,48.6,56,30.02,10.0,Calm,Calm,-,N/A,,Clear,0,2013-08-08 13:56:00
10:16 AM,64.9,50.7,60,30.02,10.0,Calm,Calm,-,N/A,,Clear,0,2013-08-08 14:16:00
10:36 AM,66.2,47.5,51,30.02,10.0,Calm,Calm,-,N/A,,Clear,0,2013-08-08 14:36:00
10:56 AM,66.2,48.0,52,30.03,10.0,SSW,3.5,-,N/A,,Clear,200,2013-08-08 14:56:00
11:16 AM,66.9,44.2,44,30.04,10.0,Calm,Calm,-,N/A,,Clear,0,2013-08-08 15:16:00
11:36 AM,-9999,-9999,N/A,-9999,-9999.0,North,-9999.0,-,N/A,,Unknown,0,2013-08-08 15:36:00
11:56 AM,-9999,-9999,N/A,-9999,-9999.0,North,-9999.0,-,N/A,,Unknown,0,2013-08-08 15:56:00
12:16 PM,-9999,-9999,N/A,-9999,-9999.0,North,-9999.0,-,N/A,,Unknown,0,2013-08-08 16:16:00
12:35 PM,-9999,-9999,N/A,-9999,-9999.0,North,-9999.0,-,N/A,,Unknown,0,2013-08-08 16:35:00
12:56 PM,66.9,55.0,66,30.03,10.0,SW,5.8,-,0.01,,Clear,230,2013-08-08 16:56:00
1:16 PM,67.8,57.0,68,30.03,10.0,WSW,8.1,-,N/A,,Clear,240,2013-08-08 17:16:00
1:35 PM,67.8,56.5,67,30.03,10.0,WSW,8.1,-,N/A,,Clear,240,2013-08-08 17:35:00
1:56 PM,67.8,56.1,66,30.03,10.0,WSW,5.8,16.1,N/A,,Clear,240,2013-08-08 17:56:00
2:16 PM,68.5,56.3,65,30.03,10.0,WSW,4.6,-,N/A,,Clear,250,2013-08-08 18:16:00
2:35 PM,67.8,55.9,66,30.03,10.0,West,9.2,-,N/A,,Clear,260,2013-08-08 18:35:00
2:56 PM,68.4,56.1,65,30.04,10.0,West,11.5,16.1,N/A,,Clear,260,2013-08-08 18:56:00
3:16 PM,68.7,55.9,64,30.04,10.0,WSW,13.8,18.4,N/A,,Clear,240,2013-08-08 19:16:00
3:35 PM,68.7,56.8,66,30.04,10.0,WSW,12.7,17.3,N/A,,Clear,240,2013-08-08 19:35:00
3:56 PM,68.9,56.5,65,30.03,10.0,WSW,12.7,-,N/A,,Clear,240,2013-08-08 19:56:00
4:16 PM,69.1,58.1,68,30.02,10.0,WSW,8.1,-,N/A,,Clear,240,2013-08-08 20:16:00
4:36 PM,68.9,56.5,65,30.01,10.0,WSW,9.2,16.1,N/A,,Clear,240,2013-08-08 20:36:00
4:56 PM,68.9,56.3,64,30.01,10.0,WSW,8.1,17.3,N/A,,Clear,250,2013-08-08 20:56:00
5:16 PM,69.3,55.6,62,30.01,10.0,WSW,11.5,17.3,N/A,,Clear,250,2013-08-08 21:16:00
5:36 PM,69.1,52.9,56,30.01,10.0,WSW,8.1,-,N/A,,Clear,250,2013-08-08 21:36:00
5:56 PM,68.9,55.4,62,30.00,10.0,WSW,8.1,-,N/A,,Clear,240,2013-08-08 21:56:00
6:16 PM,68.7,54.1,60,30.01,10.0,WSW,6.9,-,N/A,,Clear,240,2013-08-08 22:16:00
6:36 PM,68.4,52.7,57,30.00,10.0,West,6.9,-,N/A,,Clear,270,2013-08-08 22:36:00
6:56 PM,68.5,52.3,56,30.00,10.0,West,5.8,-,N/A,,Clear,260,2013-08-08 22:56:00
7:15 PM,68.0,52.9,58,30.01,10.0,WSW,5.8,-,N/A,,Clear,250,2013-08-08 23:15:00
7:36 PM,67.5,52.9,59,30.00,10.0,WSW,5.8,-,N/A,,Clear,250,2013-08-08 23:36:00
7:56 PM,66.4,53.6,63,30.00,10.0,West,5.8,-,N/A,,Clear,260,2013-08-08 23:56:00
8:15 PM,66.2,53.6,64,30.00,10.0,West,4.6,-,N/A,,Clear,260,2013-08-09 00:15:00
8:36 PM,64.4,54.1,69,30.00,10.0,WSW,5.8,-,N/A,,Clear,250,2013-08-09 00:36:00
8:56 PM,63.0,55.2,76,30.00,10.0,WSW,5.8,-,N/A,,Clear,250,2013-08-09 00:56:00
9:15 PM,62.1,55.6,79,30.01,10.0,West,4.6,-,N/A,,Clear,270,2013-08-09 01:15:00
9:36 PM,61.7,55.9,81,30.01,10.0,WSW,4.6,-,N/A,,Clear,250,2013-08-09 01:36:00
9:56 PM,61.2,55.9,83,30.01,10.0,West,5.8,-,N/A,,Clear,260,2013-08-09 01:56:00
10:15 PM,60.6,55.9,85,30.01,10.0,WSW,6.9,-,N/A,,Clear,240,2013-08-09 02:15:00
10:36 PM,60.8,56.3,85,30.01,10.0,SW,5.8,-,N/A,,Clear,230,2013-08-09 02:36:00
10:56 PM,60.6,56.5,86,30.01,10.0,SW,5.8,-,N/A,,Clear,230,2013-08-09 02:56:00
11:15 PM,60.1,56.3,87,30.00,10.0,SW,4.6,-,N/A,,Scattered Clouds,230,2013-08-09 03:15:00
11:36 PM,60.4,56.7,87,30.00,10.0,WSW,4.6,-,N/A,,Overcast,240,2013-08-09 03:36:00
11:56 PM,61.0,56.8,86,30.00,10.0,WSW,3.5,-,N/A,,Overcast,250,2013-08-09 03:56:00